Location: Grassland Mountain Observatory
(35.7543°N, 82.8038°W)
Time: 16:42:22
(UTC-05:00)

X-37B - Pass Details

Date: 12 December 2021
Orbit: 331 x 339 km, 45.0° (Epoch: 27 January)

Event Time Altitude Azimuth Distance (km) Brightness Sun altitude
Rises 18:24:46 0° 298° (WNW) 2,097 5.0 -13.2°
Reaches altitude 10° 18:27:36 10° 330° (NNW) 1,259 3.3 -13.7°
Maximum altitude 18:28:56 13° 359° (N) 1,123 2.7 -14.0°
Enters shadow 18:29:18 12° 7° (N) 1,132 2.7 -14.1°
